User: anonymous   Login
Location: Oshawa
(43.9000°N, 78.8670°W)
Time: 20:10:29
(UTC-04:00)
Language:

Altair - Orbit

View from above orbital plane
View from above orbital plane
View from above satellite
View from above satellite

Ground track
Ground track

The orbit data is extracted from the following two-line orbital elements,

1 00050U 60009B   15185.78506862 -.00000094  00000-0 -86632-4 0  9996
2 00050 047.2336 337.7966 0113355 332.4932 026.9890 12.20091762449727
Epoch (UTC): 04 July 2015 18:50:29
Eccentricity: 0.0113355
inclination: 47.2336°
perigee height: 1502 km
apogee height: 1682 km
right ascension of ascending node: 337.7966°
argument of perigee: 332.4932°
revolutions per day: 12.20091762
mean anomaly at epoch: 26.9890°
orbit number at epoch: 44972

The dashed part of the orbit path shows where the satellite is in the earth's shadow,  

DLR